Change the Weather History Date:

Sunday, October 14, 2012

  Actual Average Record
Temperature  
Mean Temperature 56 °F -  
Max Temperature 58 °F - - ()
Min Temperature 53 °F - - ()
Degree Days  
Heating Degree Days 10    
Growing Degree Days 6 (Base 50)    
Moisture  
Dew Point 56 °F    
Average Humidity 99    
Maximum Humidity 100    
Minimum Humidity 91    
Precipitation  
Precipitation 0.87 in - - ()
Sea Level Pressure  
Sea Level Pressure 29.81 in    
Wind  
Wind Speed 7 mph ()    
Max Wind Speed 12 mph    
Max Gust Speed 24 mph    
T = Trace of Precipitation, MM = Missing Value Source: Averaged Metar Reports

Daily Weather History Graph

Daily Weather History Graph

Search for Another Location

Airport or City:

Trip Planner

Search our weather history database for the weather conditions in past years. The results will help you decide how hot, cold, wet, or windy it might be!

Date:

Astronomy

Oct. 14, 2012 Rise Set
Actual Time 7:33 AM PDT 6:22 PM PDT
Civil Twilight 7:01 AM PDT 6:54 PM PDT
Nautical Twilight 6:23 AM PDT 7:32 PM PDT
Astronomical Twilight 5:46 AM PDT 8:09 PM PDT
Moon 6:38 AM PDT (10/14) 5:43 PM PDT (10/14)
Length of Visible Light 11h 53m
Length of Day
10h 48m
Waning Crescent, 1% of the Moon is Illuminated
Oct 14
Waning Crescent
Oct 15
New
Oct 21
First Quarter
Oct 29
Full
Nov 6
Last Quarter

Hourly Weather History & Observations

Time (PDT) Temp. Dew Point Humidity Pressure Visibility Wind Dir Wind Speed Gust Speed Precip Events Conditions
12:00 AM 53.6 °F 53.6 °F 100% 29.96 in - SSE 6.9 mph - 0.16 in   Unknown
1:00 AM 53.1 °F 53.1 °F 100% 29.94 in - South 4.6 mph - 0.17 in   Unknown
2:00 AM 53 °F 53 °F 100% 29.91 in - SE 8.1 mph - -  
2:00 AM 53.2 °F 53.2 °F 100% 29.91 in - SSE 8.1 mph - 0.12 in   Unknown
3:00 AM 54.1 °F 54.1 °F 100% 29.90 in - ESE 8.1 mph - 0.12 in   Unknown
4:00 AM 57.2 °F 54.5 °F 91% 29.87 in - SE 10.4 mph 18.4 mph 0.23 in   Unknown
5:00 AM 57 °F 56 °F 93% 29.85 in - ESE 6.9 mph - -  
5:00 AM 57.0 °F 55.6 °F 95% 29.85 in - ESE 6.9 mph - 0.06 in   Unknown
6:00 AM 57.4 °F 55.0 °F 92% 29.81 in - SE 8.1 mph - 0.13 in   Unknown
7:00 AM 56.7 °F 55.4 °F 96% 29.79 in - SE 6.9 mph - 0.09 in   Unknown
8:00 AM 56 °F 56 °F 100% 29.77 in - SE 9.2 mph - -  
8:00 AM 56.3 °F 56.3 °F 100% 29.77 in - SE 9.2 mph - 0.23 in   Unknown
9:00 AM 56.1 °F 56.1 °F 100% 29.76 in - SE 9.2 mph - 0.30 in   Unknown
10:00 AM 56.1 °F 56.1 °F 100% 29.75 in - SE 10.4 mph 18.4 mph 0.28 in   Unknown
11:00 AM 56 °F 56 °F 100% 29.77 in - SE 10.4 mph - -  
11:00 AM 56.3 °F 56.3 °F 100% 29.77 in - SE 10.4 mph 18.4 mph 0.36 in   Unknown
12:00 PM 56.7 °F 56.5 °F 99% 29.77 in - SE 11.5 mph 24.2 mph 0.32 in   Unknown
1:00 PM 56.7 °F 56.7 °F 100% 29.78 in - SE 10.4 mph 17.3 mph 0.16 in   Unknown
2:00 PM 57 °F 57 °F 99% 29.78 in - SE 10.4 mph - -  
2:00 PM 56.8 °F 56.8 °F 100% 29.78 in - SE 10.4 mph 18.4 mph 0.07 in   Unknown
3:00 PM 57.0 °F 57.0 °F 100% 29.78 in - SE 10.4 mph 20.7 mph 0.04 in   Unknown
4:00 PM 57.0 °F 57.0 °F 100% 29.78 in - SE 9.2 mph - 0.02 in   Unknown
5:00 PM 57 °F 57 °F 98% 29.79 in - SE 10.4 mph - -  
5:00 PM 56.7 °F 56.7 °F 100% 29.79 in - SE 10.4 mph 21.9 mph 0.03 in   Unknown
6:00 PM 56.7 °F 56.7 °F 100% 29.79 in - ESE 6.9 mph - N/A   Unknown
7:00 PM 56.5 °F 56.5 °F 100% 29.80 in - SSE 5.8 mph - 0.01 in   Unknown
8:00 PM 56 °F 56 °F 100% 29.80 in - SSW 3.5 mph - -  
8:00 PM 56.1 °F 56.1 °F 100% 29.80 in - SSW 3.5 mph - N/A   Unknown
9:00 PM 56.1 °F 56.1 °F 100% 29.81 in - SSE 3.5 mph - N/A   Unknown
10:00 PM 55.8 °F 55.8 °F 100% 29.81 in - SSE 2.3 mph - N/A   Unknown
11:00 PM 55 °F 55 °F 100% 29.81 in - South 1.2 mph - -  
11:00 PM 55.0 °F 55.0 °F 100% 29.81 in - South 1.2 mph - N/A   Unknown